sat.trackr.live / text

‹ back to catalog

GLOBALSTAR M091

NORAD 37741 · 2011-033C

PAYLOAD ACTIVE UNKNOWN

§ Identity

Operator
Country
GLOB
Launch date
2011-07-13
Launch site
TYMSC
Launch vehicle
Mass (kg)
RCS (m²)
4.93

Purposes: comms

External: N2YO · Heavens-Above · Gunter

§ Orbital elements

Epoch: 2026-09-20T03:16:53.071968Z

Period
114.08 min
Inclination
52.0008°
Eccentricity
0.0000496
Mean motion
12.62264869 rev/d
Perigee alt
1,413.2 km
Apogee alt
1,414.0 km
Semi-major
7,791.7 km
B*
5.3887e-5
RAAN
312.8507°
Arg perigee
116.7134°
Mean anomaly
270.4362°
Rev number
70,127

§ Raw data

GLOBALSTAR M0911 37741U 11033C   26263.13672537 -.00000094  00000+0  53887-4 0  99912 37741  52.0008 312.8507 0000496 116.7134 270.4362 12.62264869701274

JSON: /api/v1/satellites/37741 · /tle

For live sub-satellite position, see the globe view (requires WebGL).

§ Visibility from observer

Set your observer location to see the next 7 days of passes ≥ 10°. The values pass through the URL so the page stays shareable.

No JS? Fill the form by hand. The geolocation button needs JavaScript.